Miscellaneous Local Product
Issued by NWS North Platte, NE

Home | Current Version | Previous Version | Graphics & Text | Print | Product List | Glossary On
Versions: 1 2 3 4 5 6 7 8 9 10 11 12 13 14 15 16 17 18 19 20 21 22 23 24 25 26 27 28 29 30 31 32 33 34 35 36 37 38 39 40 41 42 43 44 45 46 47 48 49 50
000
AXUS43 KLBF 311610
MISLBF


WESTERN AND NORTH CENTRAL NEBRASKA HOURLY WEATHER ROUNDUP
NATIONAL WEATHER SERVICE NORTH PLATTE NE
1100 AM CDT MON AUG 31 2015

NOTE: "FAIR" INDICATES FEW OR NO CLOUDS BELOW 12,000 FEET WITH NO
SIGNIFICANT WEATHER AND/OR OBSTRUCTIONS TO VISIBILITY.

NOTE: STATIONS NOT REPORTING VARIABLES SUCH AS SKY/WEATHER OR
PRESSURE ARE PROVIDED BY THE NEBRASKA DEPARTMENT OF
ROADS...RAWS...AND APRS NETWORKS...AND ARE NOT UNDER
NATIONAL WEATHER SERVICE QUALITY CONTROL.

...OBSERVATIONS IN AND NEAR THE EASTERN PANHANDLE OF NEBRASKA...

CITY           SKY/WX    TMP DP  RH WIND       PRES   REMARKS
PINE RIDGE     LGT RAIN  71  53  52 N10       30.00R
CHADRON        CLOUDY    76  51  41 NW9       29.98R
ALLIANCE       CLOUDY    76  53  44 N3        30.00R
SIDNEY         CLOUDY    76  52  43 N12       30.04R
CRESCENT LAKE    N/A     81  51  34 NW6         N/A
BIG SPRINGS      N/A     82  55  39 CALM        N/A
$$

...OBSERVATIONS IN NORTH CENTRAL NEBRASKA...

CITY           SKY/WX    TMP DP  RH WIND       PRES   REMARKS
VALENTINE      MOSUNNY   86  52  30 NW9G24    29.90R
THEDFORD       MOSUNNY   80  56  43 SW7       29.95R
AINSWORTH      MOSUNNY   80  57  45 SW8       29.92R
O`NEILL        SUNNY     76  65  67 SW12      29.92R
ORD            SUNNY     76  64  66 S9        29.92S
BROKEN BOW     SUNNY     77  63  61 SW15G22   29.95R
SPRINGVIEW       N/A     76  59  54 SW5         N/A
SARGENT          N/A     75  64  68 SW10        N/A
CHAMBERS         N/A     78  66  66 SW8         N/A
EWING            N/A     74  65  74 S8          N/A
$$

...OBSERVATIONS IN SOUTHWEST NEBRASKA AND FAR NORTHEAST COLORADO...

CITY           SKY/WX    TMP DP  RH WIND       PRES   REMARKS
WRAY           FAIR      87  47  25 N16G25    29.99S
HOLYOKE        FAIR      86  48  26 NW17G25   30.00R
IMPERIAL       SUNNY     79  53  40 VRB5      29.97R
OGALLALA       SUNNY     75  53  45 CALM      29.97R
NORTH PLATTE   SUNNY     75  59  57 CALM      29.95R
MCCOOK         SUNNY     75  59  57 W5        29.96R
LEXINGTON      SUNNY     78  65  63 SW7       29.96R
PAXTON           N/A     75  58  55 CALM        N/A
BRADY            N/A     74  62  66 CALM        N/A
CALLAWAY         N/A     75  66  74 S10         N/A
$$

...OBSERVATIONS IN CENTRAL LINCOLN COUNTY AREA...

CITY           SKY/WX    TMP DP  RH WIND       PRES   REMARKS
N.P. AIRPORT   SUNNY     75  59  57 CALM      29.95R
N.P. DOWNTOWN    N/A     77  60  56 CALM        N/A
N.P. SOUTHEAST   N/A     76  60  56 CALM        N/A
N.P. HILLCREST   N/A     75  61  62 CALM        N/A
$$

...SOME OBSERVATIONS FROM AROUND THE REGION...

CITY           SKY/WX    TMP DP  RH WIND       PRES   REMARKS
DENVER         CLOUDY    76  45  33 E6        30.13R
LARAMIE        CLOUDY    69  45  41 SW10      30.24R
CHEYENNE       CLOUDY    77  47  34 W8        30.16R
SCOTTSBLUFF    CLOUDY    76  55  48 CALM      30.01R
RAPID CITY     CLOUDY    68  55  63 NW25G32   29.99R
PIERRE         CLOUDY    73  61  65 N15G24    29.83R HAZE
WINNER         FAIR      87  53  31 W17       29.84R
SIOUX FALLS    MOSUNNY   75  68  78 S16G24    29.90R
OMAHA          MOSUNNY   78  71  79 SE10      29.97R
GRAND ISLAND   SUNNY     76  66  71 S17       29.96S
KANSAS CITY    MOSUNNY   82  72  71 SW10      30.00S
WICHITA        MOSUNNY   80  67  64 S9        29.97S
HAYS           SUNNY     81  61  50 S12       29.94F
LIBERAL        SUNNY     84  57  39 SW15G22   29.99S
GOODLAND       SUNNY     81  52  36 NW6       29.98S
$$



USA.gov is the U.S. government's official web portal to all federal, state and local government web resources and services.